{"data":{"norad_id":44771,"intl_designator":"2019-074BL","name":"STARLINK-1067","alt_names":[],"object_type":"PAYLOAD","status":"ACTIVE","operator":null,"country":"US","launch_date":"2019-11-11","launch_site_code":"AFETR","launch_vehicle":null,"mission":null,"orbit_class":"UNKNOWN","rcs_meters":null,"size_class":null,"mass_kg":null,"dimensions":null,"purposes":["comms"],"wikipedia_slug":null,"has_3d_model":false,"image_url":null,"decayed_at":null,"tle_current":{"epoch":"2026-09-17T04:31:39.548352Z","epoch_age_seconds":300519,"freshness":"STALE","line1":"1 44771U 19074BL  26260.18865218  .04276665  12164-4  79550-3 0  9992","line2":"2 44771  53.0228 323.9743 0007533 343.4983  16.5813 16.31355491378772","mean_motion":16.31355491,"eccentricity":0.0007533,"inclination_deg":53.0228,"raan_deg":323.9743,"arg_perigee_deg":343.4983,"mean_anomaly_deg":16.5813,"bstar":0.0007955,"rev_number":37877,"period_min":88.270153742965,"perigee_km":183.9526290332,"apogee_km":193.84652634114,"semimajor_km":6567.0365776872,"source":"CELESTRAK","updated_at":"2026-09-17T09:00:35.097323Z"}}}